Regional Weather Roundup
Issued by NWS Northern Indiana

Home | Current Version | Previous Version | Graphics & Text | Print | Product List | Glossary On
Versions: 1 2 3 4 5 6 7 8 9 10 11 12 13 14 15 16 17 18 19 20 21 22 23 24 25 26 27 28 29 30 31 32 33 34 35 36 37 38 39 40 41 42 43 44 45 46 47 48 49 50
000
ASUS43 KIWX 032200
RWRIWX

KIWX WEATHER ROUNDUP
NATIONAL WEATHER SERVICE NORTHERN INDIANA
600 PM EDT SUN MAY 03 2015

NOTE: "FAIR" INDICATES FEW OR NO CLOUDS BELOW 12,000 FEET WITH NO
SIGNIFICANT WEATHER AND/OR OBSTRUCTIONS TO VISIBILITY.

* THESE STATIONS ARE NOT UNDER NWS QUALITY CONTROL. THEY ALSO MAY NOT
  REPORT WEATHER SUCH AS PRECIPITATION OR FOG.

INZ001>027-032300-
NORTHERN INDIANA

CITY           SKY/WX    TMP DP  RH WIND       PRES   REMARKS
GARY*          PTSUNNY   82 N/A N/A SW16      29.91F
SOUTH BEND     CLOUDY    79  42  26 S16G24    29.97S
GOSHEN         MOSUNNY   78  45  30 S12G23    29.98S
ANGOLA*        MOSUNNY   77  70  78 SW14      30.00S
FORT WAYNE     PTSUNNY   78  46  32 SW16      30.02S
PERU/GRISSOM   SUNNY     75  49  39 SW16G22   29.98F

$$
INZ028>050-032300-
CENTRAL INDIANA

CITY           SKY/WX    TMP DP  RH WIND       PRES   REMARKS
LAFAYETTE      MOSUNNY   78  46  32 S7G18     29.97F
MUNCIE*        MOSUNNY   78  47  33 S9G20     30.03S
INDIANAPOLIS   MOSUNNY   78  46  32 S10       30.00F

$$
MIZ043>046-050>051-056>058-064>065-071>073-077>080-032300-
SOUTHWEST LOWER MICHIGAN

CITY           SKY/WX    TMP DP  RH WIND       PRES   REMARKS
BATTLE CREEK   CLOUDY    76  45  33 SW14      29.98S
BENTON HARBOR  MOSUNNY   77  46  33 SW9       29.94S
COLDWATER*     PTSUNNY   76  42  29 SW9       29.99S
HILLSDALE*     PTSUNNY   77  43  30 SW9       30.01S
HOLLAND        MOSUNNY   78  46  32 SW16G23   29.95F
GRAND RAPIDS   CLOUDY    77  44  30 SW15      29.95F
KALAMAZOO      PTSUNNY   78  46  32 S15       29.97S
STURGIS*       PTSUNNY   75  48  38 SW14G20   29.98S
THREE RIVERS*  PTSUNNY   76  45  33 SW13      29.97S

$$
OHZ001>008-015>018-024>025-032300-
NORTHWEST OHIO

CITY           SKY/WX    TMP DP  RH WIND       PRES   REMARKS
DEFIANCE       MOSUNNY   78  44  29 SW9       30.01S
FINDLAY        MOSUNNY   77  45  32 S14       30.03S
TOLEDO EXPRESS PTSUNNY   77  43  29 S9G18     30.01R
TOLEDO METCALF MOSUNNY   78  42  27 SW12      30.02S
LIMA           MOSUNNY   76  45  33 S9        30.04S

$$
AND FOR LAKE MICHIGAN COASTAL AND OPEN LAKE BUOY OBSERVATIONS

STATION/POSITION TEMP    WIND        PRES    VSBY  WAVE
                 AIR SEA DIR/SP/G                  HT/PER
                 (F)     (DEG/KT/KT) (MB)    (MI)  (FT/S)
CALUMET HARBOR    80     180/  8/ 10   N/A
MICHIGAN CITY     77     190/ 15/ 19   N/A
BURNS HARBOR      78     180/  9/ 17 1013.9S
SAINT JOSEPH      72     190/  3/  8 1014.6S
4 MI NW BRIDGMAN  67 51  180/  6/  6   N/A           1
MICHIGAN CITY     67 51  190/  8/ 10   N/A           1/ 3
MICHIGAN CITY CG     54              1015.8      6   1

$$
&&



USA.gov is the U.S. government's official web portal to all federal, state and local government web resources and services.